User: anonymous   Login
Location: Unspecified
(0.0000°N, 0.0000°E)
Time: 00:21:35
(UTC+00:00)
Language:

SICRAL 2 - Orbit

View from above orbital plane
View from above orbital plane
View from above satellite
View from above satellite

Ground track
Ground track

The orbit data is extracted from the following two-line orbital elements,

1 40614U 15022B   17066.32081824 0.00000000  00000-0  00000-0 0    06
2 40614   0.0200 317.6084 0005458 126.9409 233.1265  1.00270000    03
Epoch (UTC): 07 March 2017 07:41:58
Eccentricity: 0.0005458
inclination: 0.0200°
perigee height: 35764 km
apogee height: 35810 km
right ascension of ascending node: 317.6084°
argument of perigee: 126.9409°
revolutions per day: 1.00270000
mean anomaly at epoch: 233.1265°
orbit number at epoch: 0

The dashed part of the orbit path shows where the satellite is in the earth's shadow,  

DLR